Location: Celina Elementary School
(33.3262°N, 96.7767°W)
Time: 07:39:26
(UTC+00:00)

Cosmos 1782 - Pass Details

Date: 26 November 2021
Orbit: 537 x 548 km, 82.5° (Epoch: 19 January)

Event Time Altitude Azimuth Distance (km) Brightness Sun altitude
Rises 12:19:35 0° 354° (N) 2,706 6.1 -10.4°
Reaches altitude 10° 12:21:45 10° 355° (N) 1,808 5.2 -9.9°
Maximum altitude 12:25:44 85° 85° (E) 546 2.8 -9.1°
Drops below altitude 10° 12:29:40 10° 173° (S) 1,789 5.8 -8.4°
Sets 12:31:48 0° 174° (S) 2,675 6.7 -8.0°
